Meteo Giornale » Osservazioni meteo Russia » Novokuznetsk
ore: 16:00 - Osservazioni Meteo Novokuznetsk
Lat. 53° 44' N Lon. 87° 11' E Alt. 308 metri s.l.m.
15 °C
Nuvoloso
Temp. 24 Ore
5 °C
15 °C
Sud-Ovest
18 Km/h
Dew point 1 °C
Umidità 38 %
Visibilità 10 Km
Il sole sorge alle ore 06:19
Il sole tramonta alle ore 20:02
| Data e Ora | Cielo e Fenomeni | T °C | DP °C | Um. % | Pres. hPa | Vis. km | Vento km/h | |
|---|---|---|---|---|---|---|---|---|
| Oggi h: 16:00 | Nuvoloso | 15 | 1 | 38 | 1017 | 10 | SO 18 | |
| Oggi h: 15:30 | Nuvoloso | 14 | 4 | 50 | 1018 | 10 | S/SO 18 | |
| Oggi h: 15:00 | Nuvoloso | 13 | 4 | 54 | 1017 | 10 | S 21.6 | |
| Oggi h: 14:30 | Nuvoloso | 13 | 3 | 50 | 1017 | 10 | S/SO 18 | |
| Oggi h: 14:00 | Nuvoloso | 14 | 2 | 44 | 1017 | 10 | S/SO 21.6 | |
| Oggi h: 13:30 | Nuvoloso | 14 | 2 | 44 | 1017 | 10 | SO 21.6 | |
| Oggi h: 13:00 | Nuvoloso | 14 | 2 | 44 | 1017 | 10 | SO 18 | |
| Oggi h: 12:30 | Molto Nuvoloso | 12 | 2 | 50 | 1017 | 10 | O/SO 21.6 | |
| Oggi h: 12:00 | Molto Nuvoloso | 12 | 3 | 54 | 1017 | 10 | SO 18 | |
| Oggi h: 11:30 | Molto Nuvoloso | 12 | 4 | 57 | 1017 | 10 | S 14.4 | |
| Oggi h: 11:00 | Molto Nuvoloso | 12 | 7 | 71 | 1017 | 10 | S 10.8 | |
| Oggi h: 10:30 | Nuvoloso | 11 | 7 | 76 | 1017 | 10 | S 10.8 | |
| Oggi h: 10:00 | Nuvoloso | 10 | 7 | 81 | 1017 | 10 | S 10.8 | |
| Oggi h: 09:30 | Nuvoloso | 9 | 8 | 93 | 1017 | 10 | S 10.8 | |
| Oggi h: 09:00 | Nuvoloso | 9 | 8 | 93 | 1016 | 10 | S 10.8 | |
| Oggi h: 08:30 | Poco Nuvoloso | 8 | 8 | 100 | 1016 | 10 | N 7.2 | |
| Oggi h: 08:00 | Sereno | 7 | 7 | 100 | 1016 | 10 | N 7.2 | |
| Oggi h: 07:30 | Sereno | 6 | 6 | 100 | 1016 | 10 | N 7.2 | |
| Oggi h: 07:00 | Sereno | 5 | 5 | 100 | 1015 | 10 | N 7.2 | |
| Oggi h: 06:30 | Nuvoloso | 6 | 6 | 100 | 1015 | 10 | N 7.2 | |
| Oggi h: 06:00 | Nuvoloso | 6 | 6 | 100 | 1015 | 10 | N 3.6 | |
| Oggi h: 05:30 | Nuvoloso | 6 | 6 | 100 | 1015 | 10 | N 3.6 | |
| Oggi h: 05:00 | Nuvoloso | 6 | 6 | 100 | 1015 | 10 | N 3.6 | |
| Oggi h: 04:30 | Nuvoloso | 7 | 7 | 100 | 1014 | 10 | SO 10.8 | |
| Oggi h: 04:00 | Nuvoloso | 6 | 6 | 100 | 1014 | 10 | SO 10.8 | |
| Oggi h: 03:30 | Nuvoloso | 7 | 6 | 93 | 1014 | 10 | O/SO 10.8 | |
| Oggi h: 03:00 | Nuvoloso | 8 | 6 | 87 | 1013 | 10 | O 14.4 | |
| Oggi h: 02:30 | Nuvoloso | 8 | 6 | 87 | 1013 | 10 | O/SO 14.4 | |
| Oggi h: 02:00 | Nuvoloso | 8 | 6 | 87 | 1013 | 10 | SO 10.8 | |
| Oggi h: 01:30 | Nuvoloso | 8 | 6 | 87 | 1012 | 10 | SO 10.8 | |
| Oggi h: 01:00 | Nuvoloso | 8 | 7 | 93 | 1012 | 10 | N 7.2 | |
| Oggi h: 00:30 | Nuvoloso | 8 | 8 | 100 | 1012 | 10 | N 7.2 | |
| Oggi h: 00:00 | Pioggia | 9 | 8 | 93 | 1012 | 10 | N 7.2 | |
| Ieri h: 23:30 | Pioggia | 9 | 9 | 100 | 1011 | 10 | N 7.2 | |
| Ieri h: 23:00 | Pioggia | 9 | 8 | 93 | 1011 | 10 | N 7.2 | |
| Ieri h: 22:30 | Pioggia | 10 | 7 | 81 | 1011 | 9 | SO 10.8 | |
| Ieri h: 22:00 | Pioggia | 10 | 9 | 93 | 1010 | 10 | O/SO 10.8 | |
| Ieri h: 21:30 | Pioggia | 11 | 8 | 81 | 1010 | 10 | N 3.6 | |
| Ieri h: 21:00 | Nuvoloso | 10 | 9 | 93 | 1010 | 10 | N 7.2 | |
| Ieri h: 20:30 | Nuvoloso | 11 | 9 | 87 | 1009 | 10 | N 3.6 | |
| Ieri h: 20:00 | Molto Nuvoloso | 11 | 9 | 87 | 1009 | 10 | N 7.2 | |
| Ieri h: 19:30 | Molto Nuvoloso | 12 | 9 | 81 | 1009 | 10 | N/NO 10.8 | |
| Ieri h: 19:00 | Pioggia | 12 | 10 | 87 | 1008 | 10 | N 7.2 | |
| Ieri h: 18:30 | Pioggia | 12 | 9 | 81 | 1009 | 10 | N/NO 10.8 | |
| Ieri h: 18:00 | Nuvoloso | 13 | 9 | 76 | 1008 | 10 | N/NO 18 | |
| Ieri h: 17:30 | Pioggia | 14 | 9 | 71 | 1008 | 10 | O/NO 10.8 | |
| Ieri h: 17:00 | Nuvoloso | 15 | 8 | 62 | 1009 | 10 | O 14.4 | |



